Location: Picton
(44.0065°N, 77.1464°W)
Time: 16:26:00
(UTC+00:00)

Daily predictions for brighter satellites

Satellite Brightness Start Highest point End
(mag) Time Altitude Azimuth Time Altitude Azimuth Time Altitude Azimuth
BREEZE-M DEB (TANK) 3.0 12:00:12 10° NW 12:02:25 43° NNE 12:05:08 10° E
Cosmos 1484 Rocket 3.9 12:02:51 10° NNW 12:05:12 18° WNW 12:07:34 10° WSW
Cosmos 2278 Rocket 2.8 12:01:08 10° WSW 12:06:15 35° NW 12:11:24 10° N
Cosmos 1666 Rocket 3.7 12:03:11 10° SSW 12:07:24 51° WNW 12:11:41 10° N
Tiangong 1.5 12:07:21 10° SSE 12:07:49 10° SSE 12:08:17 10° SE
COSMO-SKYMED 1 4.4 12:07:11 10° W 12:07:57 10° W 12:08:44 10° WNW
SL-8 Rocket 4.0 12:03:17 10° S 12:09:35 79° W 12:15:55 10° N
Cosmos 1371 Rocket 4.0 22:19:37 10° SSW 22:24:54 74° ESE 22:30:09 10° NNE
Cosmos 968 Rocket 4.2 22:20:32 10° N 22:25:08 31° ENE 22:29:40 10° ESE
BREEZE-M DEB (TANK) 3.4 22:24:03 10° SSW 22:25:59 25° SE 22:28:53 10° ENE
Cosmos 2237 Rocket 4.4 22:22:55 10° W 22:26:33 17° NW 22:30:12 10° N
SL-16 R/B 3.2 22:24:24 10° SW 22:29:49 46° WNW 22:35:16 10° NNE
IRS-1C 4.2 22:24:43 10° SE 22:29:52 54° ENE 22:35:04 10° N
Cosmos 2341 Rocket 4.2 22:23:46 10° N 22:29:55 50° ENE 22:35:59 10° SSE
Cosmos 1624 Rocket 4.0 22:26:53 10° SSW 22:32:09 86° ESE 22:37:29 10° NNE
AQUARIUS 4.4 22:28:59 10° SE 22:33:11 46° ENE 22:37:25 10° N
Cosmos 1190 Rocket 4.3 22:28:25 10° NNW 22:33:36 74° WSW 22:38:45 10° SSE
CORIOLIS 4.3 22:30:52 10° SSE 22:36:15 86° WSW 22:41:42 10° NNW
Cosmos 1484 Rocket 4.2 22:35:15 10° SSW 22:38:23 37° W 22:41:31 10° NNW
Thor Agena Rocket 3.6 22:34:39 10° SSE 22:39:41 85° WSW 22:44:44 10° NNW
SPOT 1/Viking Rocket 3.9 22:35:33 10° SE 22:40:20 40° ENE 22:45:07 10° N
USA 238 DEB 4.2 22:33:24 10° NNW 22:40:34 51° NE 22:48:21 10° ESE
USA 238 4.2 22:33:30 10° NNW 22:40:40 51° NE 22:48:26 10° ESE
Cosmos 1703 3.5 22:38:16 10° SSE 22:41:16 32° E 22:44:17 10° NNE
Cosmos 1515 Rocket 4.1 22:40:32 10° SSE 22:44:34 37° E 22:48:38 10° NNE
OPS 8737 4.0 22:42:17 10° NNW 22:45:19 67° NE 22:48:27 10° SE
USA 267 4.1 22:39:47 10° ENE 22:45:28 33° NNE 22:51:09 10° NW
Cosmos 371 Rocket 4.1 22:41:17 10° NNW 22:45:58 57° WSW 22:50:37 10° S
YAOGAN 1 3.5 22:43:13 10° ESE 22:46:44 26° ENE 22:50:16 10° NNE
Cosmos 1953 2.4 22:43:18 10° N 22:46:52 43° ENE 22:50:24 10° SSE
BREEZE-M DEB (TANK) 3.9 22:41:07 10° W 22:46:59 48° NNW 22:50:07 13° ENE
SJ 16-02 2.1 22:43:01 10° NNW 22:47:12 54° WSW 22:51:22 10° S
Cosmos 676 Rocket 4.0 22:42:29 10° NNW 22:47:42 89° ENE 22:52:55 10° SSE
Cosmos 1340 Rocket 4.2 22:45:42 10° NNE 22:48:16 17° ENE 22:50:49 10° ESE
CZ-2D R/B 2.6 22:45:13 10° SSE 22:48:18 69° ENE 22:51:27 10° N
Meteor 1-21 4.4 22:44:40 10° SSE 22:50:02 49° E 22:55:24 10° NNE
SJ-6F 4.5 22:46:12 10° SSE 22:50:09 54° ENE 22:54:07 10° N
Resurs 01 Rocket 3.2 22:48:20 10° E 22:50:32 14° ENE 22:52:48 10° NNE
Cosmos 1110 Rocket 4.2 22:46:25 10° S 22:51:26 50° ESE 22:56:27 10° NNE
Meteor 1-16 Rocket 4.4 22:48:22 10° N 22:53:27 43° ENE 22:58:33 10° SE
NOSS 2-3 (D) 4.5 22:55:02 10° NW 23:00:22 85° SW 23:07:37 10° SSE
Cosmos 1452 Rocket 3.9 22:57:12 10° S 23:02:08 44° ESE 23:07:07 10° NNE
SL-8 Rocket 4.0 22:57:24 10° N 23:03:39 90° WSW 23:09:49 10° S
ISS -3.7 23:00:50 10° SW 23:04:08 65° SE 23:06:07 22° ENE
Meteor 1-15 Rocket 4.4 23:00:18 10° NNW 23:06:15 84° W 23:12:07 10° S
Cosmos 1470 Rocket 3.4 23:02:53 10° N 23:07:14 86° E 23:11:34 10° S
Meteor 1-12 Rocket 4.3 23:01:48 10° N 23:07:20 52° ENE 23:12:48 10° SSE
BREEZE-M (TANK) 1.5 23:06:23 10° WSW 23:08:31 60° NNW 23:09:32 27° NE
ATLAS 5 CENTAUR R/B 2.5 23:09:01 10° WSW 23:11:35 26° NW 23:14:11 11° NNE
IRS-P3 4.1 23:08:41 10° SSE 23:14:00 88° WSW 23:19:20 10° NNW
Cosmos 1933 Rocket 3.7 23:11:05 10° N 23:15:20 46° ENE 23:19:31 10° SSE
Meteor 2-15 4.4 23:10:05 10° N 23:16:11 62° E 23:22:12 10° SSE
USA 276 1.3 23:15:22 10° WSW 23:17:42 80° SSE 23:18:14 50° ENE
Okean 2 3.3 23:16:32 10° S 23:20:16 51° E 23:23:20 15° NNE
NOSS 3-4 (A) 3.1 23:15:09 10° SW 23:20:23 89° NW 23:25:02 16° NE
NOSS 3-4 (C) 3.1 23:15:17 10° SW 23:20:32 90° NNW 23:25:12 16° NE
Spot 4 Rocket 4.0 23:16:37 10° SSE 23:21:37 56° ENE 23:26:37 10° N
OPS 6432 4.1 23:19:35 10° NW 23:22:55 80° NE 23:25:43 13° SE
RESURS DK-1 2.7 23:23:26 10° S 23:27:12 42° ESE 23:28:18 33° ENE
Cosmos 1821 Rocket 3.9 23:21:46 10° N 23:28:01 82° E 23:34:08 10° S
CZ-2D R/B 3.1 23:24:19 10° SSE 23:28:09 68° ENE 23:31:57 10° N
Cosmos 1603 3.7 23:23:50 10° SSW 23:29:30 82° WNW 23:34:54 11° NNE
Cosmos 1697 Rocket 4.1 23:26:57 10° N 23:30:30 19° NE 23:30:30 19° NE
BREEZE-M DEB (TANK) 2.4 23:30:27 10° NW 23:32:34 42° N 23:32:34 42° N
Cosmos 332 Rocket 4.0 23:29:06 10° NNW 23:33:53 73° WSW 23:38:38 10° SSE
Cosmos 2181 Rocket 4.2 23:32:26 10° SSW 23:38:33 74° W 23:44:47 10° N
Cosmos 1833 Rocket 3.6 23:35:03 10° SSE 23:39:20 26° ESE 23:39:20 26° ESE
Cosmos 1869 Rocket 3.4 23:37:36 10° N 23:41:58 62° E 23:46:16 10° SSE
ARIANE 5 R/B 4.3 23:37:37 10° SSW 23:42:20 34° W 23:47:05 10° NNW
CARTOSAT-1 3.4 23:40:12 10° SSE 23:44:18 59° ENE 23:48:28 10° N
COSMO-SKYMED 1 2.4 23:43:33 15° N 23:46:56 83° WNW 23:51:01 10° SSW
Resurs 1-3 3.8 23:44:38 10° S 23:48:54 69° WSW 23:53:13 10° NNW
USA 59 Rocket 2.0 23:49:14 10° N 23:49:23 11° N 23:49:23 11° N
